#timestamp,LO_Frequency,Hit,StdDev 
1557241215.9,286047002.1,N
1557241235.7,286047002.8,N
1557241255.6,286047001.9,N
1557241275.4,286047000.6,N
1557241295.2,286047000.3,N
1557241315.1,286047002.7,N
1557241316.0,286047002.7,N
1557241335.8,286047001.9,N
1557241355.7,286046999.8,N
1557241375.5,286046999.8,N
1557241395.3,286047001.5,N
1557241415.2,286047001.8,N
1557241435.9,286047002.1,N
1557241455.7,286047002.6,N
1557241475.6,286046998.6,N
1557241495.4,286046996.7,N
1557241515.3,286046996.5,N
1557241535.1,286046996.8,N
1557241536.0,286046996.8,N
1557241555.8,286047000.9,N
1557241575.7,286047000.7,N
1557241595.5,286047000.6,N
1557241615.3,286046998.7,N
1557241635.2,286046999.1,N
1557241655.0,286046998.2,N
1557241655.9,286046998.2,N
1557241675.8,286046999.1,N
1557241695.6,286046998.9,N
1557241715.4,286046999.1,N
1557241735.3,286046998.3,N
1557241755.1,286047001.2,N
1557241775.8,286046998.2,N
1557241795.7,286046999.2,N
1557241815.5,286046999.0,N
1557241835.4,286046999.2,N
1557241855.2,286047001.1,N
1557241875.0,286047001.9,N
1557241875.9,286047001.9,N
1557241895.8,286046999.8,N
1557241915.6,286047000.5,N
1557241935.4,286047001.1,N
1557241955.3,286047002.7,N
1557241975.1,286046999.8,N
1557241995.9,286047000.1,N
1557242015.7,286046999.8,N
1557242035.5,286046999.9,N
1557242055.4,286046999.8,N
1557242075.2,286047001.0,N
1557242095.0,286046998.1,N
1557242095.9,286046998.1,N
1557242115.8,286047000.3,N
1557242135.6,286047002.0,N
1557242155.5,286047004.4,Y
1557242175.3,286047005.7,P
1557242195.1,286047003.8,N
1557242215.9,286047003.9,N
1557242235.7,286047002.4,N
1557242255.5,286046999.8,N
1557242275.4,286047002.0,N
1557242295.2,286047003.6,N
1557242315.1,286047003.7,N
1557242316.0,286047003.7,N
1557242335.8,286047003.4,N
1557242355.6,286047003.7,N
1557242375.5,286047003.7,N
1557242395.3,286047004.3,N
1557242415.1,286047002.0,N
1557242435.9,286047001.5,N
1557242455.7,286047001.3,N
1557242475.6,286047002.5,N
1557242495.4,286047001.3,N
1557242515.2,286047002.1,N
1557242535.1,286047002.7,N
1557242536.0,286047002.7,N
1557242555.8,286046999.8,N
1557242575.7,286047002.2,N
1557242595.5,286047003.7,N
1557242615.3,286047001.6,N
1557242635.2,286047000.7,N
1557242655.0,286047002.6,N
1557242655.9,286047002.6,N
1557242675.7,286047002.3,N
1557242695.6,286047003.1,N
1557242715.4,286047003.1,N
1557242735.3,286047003.2,N
1557242755.1,286047002.9,N
1557242756.0,286047002.9,N
1557242775.8,286047006.7,Y
1557242795.7,286047005.5,P
1557242815.5,286047004.4,N
1557242835.3,286047002.4,N
1557242855.2,286047000.3,N
1557242875.0,286047001.2,N
1557242875.9,286047001.2,N
1557242895.8,286046999.0,N
1557242915.6,286046998.1,N
1557242935.4,286047000.4,N
1557242955.3,286047002.4,N
1557242975.1,286047002.3,N
1557242995.8,286047001.8,N
1557243015.7,286046999.7,N
1557243035.5,286047000.2,N
1557243055.4,286046999.9,N
1557243075.2,286046999.8,N
1557243095.0,286047002.2,N
1557243095.9,286047002.2,N
1557243115.8,286047004.4,N
1557243135.6,286047003.1,N
1557243155.4,286047003.5,N
1557243175.3,286047001.5,N
1557243195.1,286047002.7,N
1557243215.9,286047000.8,N
1557243235.7,286046998.3,N
1557243255.5,286047000.9,N
1557243275.4,286047000.5,N
1557243295.2,286047000.1,N
1557243315.0,286047000.7,N
1557243315.9,286047000.7,N
1557243335.8,286046998.7,N
1557243355.6,286047000.1,N
1557243375.5,286047000.6,N
1557243395.3,286047000.1,N
1557243415.1,286047001.9,N
1557243435.9,286046999.9,N
1557243455.7,286047000.3,N
1557243475.5,286046999.8,N
1557243495.4,286047001.1,N
1557243515.2,286046998.1,N
1557243535.1,286047001.0,N
1557243536.0,286047001.0,N
1557243555.8,286046998.8,N
1557243575.6,286047001.2,N
1557243595.5,286046999.3,N
1557243615.3,286046999.1,N
1557243635.2,286046996.5,N
1557243655.9,286046996.7,N
1557243675.7,286046999.5,N
1557243695.6,286046997.0,N
1557243715.4,286046997.0,N
1557243735.2,286046999.5,N
1557243755.1,286046999.6,N
1557243756.0,286046999.6,N
1557243775.8,286046996.9,N
1557243795.7,286046998.8,N
1557243815.5,286046998.6,N
1557243835.3,286046998.8,N
1557243855.2,286046998.4,N
1557243875.0,286046996.5,N
1557243875.9,286046996.5,N
1557243895.8,286046999.5,N
1557243915.6,286046997.8,N
1557243935.4,286046999.5,N
1557243955.3,286046999.3,N
1557243975.1,286046998.4,N
1557243995.9,286047000.9,N
1557244015.7,286046998.8,N
1557244035.5,286046998.4,N
1557244055.4,286046998.9,N
1557244075.2,286046996.7,N
1557244095.1,286046999.6,N
1557244096.0,286046999.6,N
1557244115.8,286046998.3,N
1557244135.6,286047001.0,N
1557244155.5,286047000.3,N
1557244175.3,286047001.0,N
1557244195.1,286047000.0,N
1557244215.9,286047000.0,N
1557244235.7,286047001.1,N
1557244255.5,286046998.5,N
1557244275.4,286046998.9,N
1557244295.2,286046996.9,N
1557244315.1,286046999.1,N
1557244316.0,286046999.1,N
1557244335.8,286046997.4,N
1557244355.6,286046997.5,N
1557244375.5,286046997.4,N
1557244395.3,286046997.7,N
1557244415.2,286046997.5,N
1557244435.9,286046996.8,N
1557244455.7,286046996.7,N
1557244475.6,286046999.6,N
1557244495.4,286046995.9,Y
1557244515.3,286046995.8,P
1557244535.1,286046997.8,N
1557244536.0,286046997.8,N
1557244555.8,286046997.1,N
1557244575.7,286046993.8,Y
1557244595.5,286046997.0,P
1557244615.4,286046998.6,P
1557244635.2,286047000.3,N
1557244655.0,286047002.6,N
1557244655.9,286047002.6,N
1557244675.8,286047000.1,N
1557244695.6,286047001.9,N
1557244715.4,286047000.8,N
1557244735.3,286046998.7,N
1557244755.1,286047000.6,N
1557244775.9,286047002.3,N
1557244795.7,286047004.3,N
